Regional Weather Roundup
Issued by NWS Cleveland, OH

Home | Current Version | Previous Version | Graphics & Text | Print | Product List | Glossary On
Versions: 1 2 3 4 5 6 7 8 9 10 11 12 13 14 15 16 17 18 19 20 21 22 23 24 25 26 27 28 29 30 31 32 33 34 35 36 37 38 39 40 41 42 43 44 45 46 47 48 49 50
000
ASUS41 KCLE 150910
RWRCLE
OHIO REGIONAL WEATHER ROUNDUP
NATIONAL WEATHER SERVICE CLEVELAND, OH
400 AM EST FRI DEC 15 2017

NOTE: "FAIR" INDICATES FEW OR NO CLOUDS BELOW 12,000 FEET WITH NO
SIGNIFICANT WEATHER AND/OR OBSTRUCTIONS TO VISIBILITY.

OHZ001>008-015>018-024>027-034-035-043-044-151000-
   NORTHWEST OHIO

CITY           SKY/WX    TMP DP  RH WIND       PRES   REMARKS
DEFIANCE       CLOUDY    20  12  71 S6        30.00F WCI  12
FINDLAY        CLOUDY    18  10  71 S7        30.00F WCI   9
TOLEDO EXPRESS CLOUDY    17   9  70 S7        29.99F WCI   8
TOLEDO EXEC    CLOUDY    18   7  62 S7        30.01F WCI   9
LIMA           CLOUDY    19  14  81 S6        30.00F WCI  11
$$

OHZ009>014-019>023-028>033-038-089-151000-
   NORTHEAST OHIO

CITY           SKY/WX    TMP DP  RH WIND       PRES   REMARKS
CLE-HOPKINS    CLOUDY     7   3  84 SW5       30.04F WCI  -2
CLE-LAKEFRONT  CLEAR     13   6  74 S10       30.01F WCI   0
CUY CO. ARPT   NOT AVBL
LORAIN-ELYRIA  CLOUDY     3  -3  76 SW6       30.02F WCI  -8
ASHTABULA      PTCLDY     7   4  87 CALM      30.00F
AKRON-CANTON   CLOUDY    11   6  81 W3        29.99F
WOOSTER        CLOUDY     2  -2  83 CALM      30.00  FOG
MANSFIELD      PTCLDY     9   7  92 CALM      29.98F
YOUNGSTOWN     CLOUDY    10   8  92 S3        29.99F
$$

OHZ042-051>053-060>062-070>072-077>081-151000-
  SOUTHWEST OHIO

CITY           SKY/WX    TMP DP  RH WIND       PRES   REMARKS
CINC-COVINGTON CLOUDY    23  18  81 SW3       30.03S
CINC-LUNKEN    CLOUDY    24  18  77 CALM      30.08S
HAMILTON       CLOUDY    21  19  92 CALM      30.06S
DAYTON         CLOUDY    19  17  92 S5        30.02S WCI  12
WRIGHT-PAT AFB CLOUDY    19  16  90 CALM      30.02F
DAYTON GENERAL PTCLDY    20  16  84 CALM      30.02S
WILMINGTON     PTCLDY    21  17  84 CALM      30.01F
$$

OHZ036-037-039>041-045>050-054>059-063>069-073>076-082>088-151000-
  CENTRAL AND SOUTHEAST OHIO

CITY           SKY/WX    TMP DP  RH WIND       PRES   REMARKS
COLUMBUS       CLOUDY    20  16  84 CALM      30.03F
OSU AIRPORT    PTCLDY    17  15  92 CALM      30.03S
BOLTON FIELD   CLOUDY    17  15  91 CALM      30.03S
RICKENBACK AFB CLOUDY    19  18  93 CALM      30.03F
NEWARK         PTCLDY    17  13  84 CALM      30.02F
MARION         CLOUDY    11   7  84 CALM      30.01  FOG
LANCASTER      CLOUDY    20  17  88 CALM      30.03F
ZANESVILLE     PTCLDY    20  15  81 CALM      30.02F
NEW PHILLY     NOT AVBL
$$




USA.gov is the U.S. government's official web portal to all federal, state and local government web resources and services.